Theta_e
349 349 349 349 349 349 349 345 346 350 351 347 344 344 344 347 345 346 347 344 344 346 341 335 337 338 334 333 332 333 339 345 341 338 337 335 337 338 342 345 344 346 345
351 351 349 343 348 350 349 350 344 348 349 348 345 344 345 348 347 345 348 348 344 344 339 337 337 342 341 336 334 333 334 343 346 345 345 342 340 335 337 336 332 334 343
350 349 349 341 344 351 347 349 350 347 348 348 347 346 345 348 346 345 348 348 347 343 340 339 342 342 343 343 341 337 334 332 335 339 344 343 340 336 333 335 334 334 331
349 350 349 348 346 347 351 349 351 350 348 345 345 347 346 348 347 342 345 347 347 347 346 342 343 344 344 344 343 343 341 337 334 332 332 334 334 334 334 334 335 336 336
348 348 347 347 345 347 351 348 348 350 348 347 345 346 348 347 347 345 345 345 347 347 348 347 343 344 346 346 345 344 344 342 340 339 338 338 338 338 337 337 338 338 337
349 348 349 350 349 348 350 347 347 350 350 349 348 346 347 347 347 346 346 346 345 347 349 350 349 348 345 346 347 346 345 345 344 342 342 342 343 343 343 342 342 341 341
350 350 350 352 352 351 350 346 349 351 351 350 349 348 348 348 347 345 346 345 346 346 346 348 346 348 348 346 346 346 346 345 345 345 344 343 343 344 344 344 344 344 344
348 350 351 352 352 352 353 353 352 350 350 350 348 348 350 346 345 343 342 345 345 345 344 345 347 347 348 348 349 344 344 345 345 346 347 346 345 345 345 345 345 345 345
348 348 348 348 351 351 349 353 350 351 350 349 349 347 349 347 343 342 344 343 343 344 343 344 344 344 342 345 346 345 342 342 342 342 345 346 347 347 347 347 347 347 346
348 349 349 349 348 350 352 349 351 349 350 349 349 348 348 346 348 346 345 345 345 345 346 345 344 345 344 346 346 344 341 340 342 342 344 344 349 348 348 348 348 348 347
352 351 349 349 348 351 351 351 349 352 349 349 349 349 348 348 347 347 348 345 345 345 345 346 345 345 346 344 345 347 342 341 342 342 342 343 343 349 349 350 349 349 348
353 353 351 350 349 349 350 350 349 349 349 348 348 349 348 348 347 347 348 347 346 346 346 345 345 345 345 344 341 342 344 342 342 342 343 344 345 348 346 346 348 347 345
349 351 352 353 352 352 351 351 349 348 348 350 349 349 348 349 348 347 347 346 347 346 346 345 345 345 345 346 346 342 343 343 343 343 345 344 344 347 346 345 344 346 346
335 340 343 347 351 353 353 352 352 351 351 348 349 349 348 348 348 348 348 347 349 347 346 346 345 347 347 347 347 343 342 342 342 344 344 346 346 344 344 345 344 345 345
336 336 338 339 342 347 349 350 350 351 351 350 350 351 350 349 349 349 348 347 348 352 346 343 346 347 346 347 346 345 347 343 343 345 346 345 346 345 344 344 345 345 346
334 335 335 336 338 340 343 346 349 349 350 349 350 349 350 350 349 349 349 348 347 348 351 346 344 346 347 344 346 345 348 343 347 347 346 345 344 345 344 343 345 346 345
333 333 334 334 335 336 339 342 344 348 349 350 349 349 349 348 348 348 348 348 348 348 349 347 347 346 348 345 343 346 349 349 347 346 345 346 345 345 344 345 346 346 342
332 332 332 333 334 334 334 337 341 342 347 348 348 348 348 348 347 346 345 344 347 347 347 350 347 348 347 348 348 349 350 348 348 347 347 346 346 346 345 346 347 344 342
331 331 332 332 332 332 333 334 337 340 345 346 348 348 347 347 346 346 344 346 344 344 346 346 348 348 347 348 348 350 350 351 350 348 345 345 346 346 347 347 347 343 342
331 331 330 330 330 330 330 332 335 338 341 344 344 346 347 347 344 342 340 338 340 342 344 346 346 347 348 348 348 347 349 350 349 348 348 347 349 347 346 348 347 344 343
331 329 327 328 328 328 329 330 333 336 339 342 344 344 345 345 345 342 338 335 335 339 344 345 344 346 348 348 348 345 348 347 349 351 349 349 349 349 348 347 347 346 344
328 325 325 325 326 327 328 330 330 334 337 340 343 343 344 343 340 338 338 337 335 338 340 341 344 345 347 347 346 347 349 349 351 349 350 349 348 349 349 349 348 346 345
326 324 324 322 329 330 330 330 329 331 334 338 341 343 342 342 339 338 334 332 332 335 338 341 343 344 346 346 347 349 350 351 350 350 349 349 349 349 348 348 348 346 345
324 323 323 321 327 331 332 332 331 332 336 337 340 341 342 342 341 340 339 338 338 339 340 339 342 345 346 345 348 349 350 351 350 351 350 350 348 349 347 348 348 344 343
325 324 322 318 322 325 327 330 334 335 337 338 337 339 341 340 338 336 336 337 337 338 339 339 336 334 337 341 346 349 348 349 349 349 349 348 347 348 347 347 347 342 340
324 323 323 319 320 323 322 324 331 334 336 337 337 337 338 339 337 334 333 338 339 338 338 338 337 339 339 341 345 345 347 348 347 347 348 347 346 347 347 346 345 343 337
Wind_Speed
10 11 11 10 10 10 9 10 10 8 8 9 10 11 11 11 11 11 11 11 11 10 11 12 12 12 12 13 13 13 13 15 13 12 12 12 12 12 12 13 13 13 12
12 13 13 16 12 11 11 11 12 9 10 10 11 12 12 12 11 11 8 6 10 10 11 13 13 13 13 13 14 14 16 16 14 13 14 14 15 14 15 16 15 15 14
15 15 14 19 17 12 15 13 13 13 11 11 12 13 13 13 12 11 9 7 8 11 13 14 14 13 14 14 14 15 16 17 17 15 16 17 17 16 16 16 16 16 15
18 15 16 16 17 21 15 15 12 11 12 12 13 13 14 14 14 15 13 11 11 12 14 17 16 15 16 15 17 16 16 17 17 17 18 18 19 18 17 17 17 18 17
20 19 18 18 19 18 15 18 14 14 13 12 13 14 15 17 17 16 15 16 14 14 14 16 17 19 18 19 18 16 16 16 16 16 16 17 17 18 19 18 18 18 19
21 21 20 20 19 19 18 22 22 17 15 13 13 16 16 18 18 18 18 19 17 16 15 15 15 17 21 21 19 19 18 18 18 18 18 17 17 17 17 19 19 19 20
21 22 23 21 20 21 22 25 20 18 19 15 14 17 18 18 20 21 21 22 22 20 19 19 21 17 17 20 21 22 21 19 20 20 21 22 22 21 21 20 20 21 21
28 25 25 25 23 23 22 22 21 20 18 17 13 12 8 14 15 19 23 24 24 23 23 22 21 21 20 19 20 22 20 20 22 24 26 28 27 26 24 25 25 24 24
25 29 34 34 29 28 28 24 25 23 22 18 18 13 5 6 8 10 14 19 22 24 25 24 23 24 26 24 25 25 26 23 22 21 21 24 27 29 27 26 25 24 24
25 28 34 32 32 29 27 30 28 28 27 22 16 22 25 20 8 7 5 6 10 14 18 20 20 21 23 22 24 27 27 26 23 21 21 20 19 20 22 25 25 24 23
22 25 28 29 29 31 29 32 32 26 28 29 26 20 20 22 22 18 13 15 16 15 14 11 12 18 16 17 18 23 29 25 23 23 23 22 22 20 19 21 21 21 22
18 19 22 26 30 32 31 34 37 37 36 32 31 27 23 15 18 18 13 20 21 23 21 20 18 19 21 19 21 22 26 26 23 24 23 23 21 20 18 17 17 19 20
18 19 18 20 23 25 27 32 33 37 37 35 35 34 30 30 26 23 21 20 16 21 17 19 20 19 17 16 18 18 18 21 22 23 20 23 24 22 21 19 16 16 16
20 20 21 22 23 24 25 27 28 31 31 36 36 36 35 31 29 28 27 20 13 19 20 23 17 16 16 15 15 16 17 18 20 21 21 21 25 27 24 20 17 16 17
19 19 20 23 25 26 27 28 30 31 30 32 33 32 33 34 30 29 27 24 21 13 14 22 20 16 16 14 15 14 14 17 19 19 17 18 18 23 23 20 18 17 18
20 21 22 22 23 26 29 29 31 32 32 33 33 32 31 31 30 28 29 27 26 24 15 27 25 22 19 20 17 18 17 19 16 17 19 19 18 17 19 19 18 18 18
19 21 23 24 25 25 28 32 33 32 33 33 34 33 33 33 32 30 23 26 29 25 16 31 30 26 21 24 28 20 18 17 18 23 24 22 21 21 21 20 18 17 18
20 21 22 23 25 28 29 33 35 34 35 33 34 32 34 34 35 35 36 39 37 35 31 26 29 28 24 23 21 20 20 19 19 19 21 22 20 21 22 21 19 18 18
22 24 25 26 30 32 32 33 35 36 35 36 35 34 36 35 34 35 34 35 34 32 29 28 28 29 27 22 20 19 20 18 19 20 22 23 23 21 25 24 22 19 18
23 27 30 33 36 37 37 35 36 35 35 36 37 36 36 37 40 36 34 32 27 27 28 26 28 30 24 22 20 19 19 17 19 18 19 22 22 23 24 25 23 21 19
22 27 35 38 43 43 40 36 36 35 32 35 35 36 37 37 39 36 32 29 26 24 23 21 23 22 22 20 22 17 23 17 16 16 18 18 18 20 23 27 27 25 22
23 32 39 41 47 38 35 36 37 32 29 32 33 32 32 32 35 41 45 38 31 28 29 27 27 19 22 23 22 18 20 15 11 14 16 19 17 17 18 21 23 26 22
24 33 37 44 36 29 27 31 32 32 30 30 31 30 29 28 29 27 33 34 36 35 37 31 31 26 22 24 23 20 19 17 16 11 8 12 13 17 18 19 25 24 22
23 30 36 46 39 29 26 26 28 30 31 31 33 31 29 26 25 24 24 25 27 30 32 42 36 28 27 25 25 23 19 19 15 15 12 13 16 18 16 17 21 20 20
22 28 31 46 37 31 24 19 28 30 28 29 29 27 25 25 26 29 27 25 24 27 30 30 30 27 30 28 25 22 18 17 13 15 16 16 15 16 15 16 16 17 18
18 24 33 39 36 31 29 20 10 17 20 22 24 28 32 25 24 28 30 24 24 24 22 21 27 24 28 29 28 28 21 20 19 14 16 16 16 12 11 15 15 13 18
Wind_Direction
240 246 251 259 263 265 267 267 269 265 261 254 246 246 252 256 268 285 285 271 256 247 252 258 259 259 260 260 257 256 254 261 260 260 260 261 262 264 267 267 272 267 270
241 248 258 265 267 269 268 266 266 264 262 255 252 251 253 258 270 282 285 262 253 247 249 258 265 268 266 266 265 261 260 258 261 266 274 273 269 267 263 267 268 266 269
245 251 261 266 264 272 274 274 270 267 260 257 256 254 252 257 264 269 272 266 257 259 254 257 262 273 273 276 273 272 267 265 263 262 263 267 267 272 272 272 272 272 267
243 247 253 260 267 268 275 268 266 264 261 257 259 255 256 258 262 261 262 262 263 256 261 256 257 260 261 268 273 275 275 273 271 269 267 270 273 274 274 274 275 276 275
244 245 246 252 260 264 262 267 265 259 261 259 261 263 262 261 261 260 257 259 261 262 255 254 258 260 262 262 265 277 278 279 282 280 277 277 279 279 280 278 277 278 278
250 245 246 247 250 254 257 263 268 259 258 263 265 264 262 261 259 256 258 258 257 257 256 252 254 260 264 264 265 269 266 269 273 277 279 277 276 277 278 279 281 281 279
255 252 249 249 250 249 248 260 255 257 260 261 263 267 266 264 257 253 252 253 253 253 253 251 254 256 261 267 265 265 265 268 268 268 271 273 273 272 274 278 281 281 281
259 250 248 248 247 250 251 245 242 245 253 245 241 268 275 271 258 251 245 246 248 249 251 250 249 252 254 258 261 269 271 266 264 265 268 267 268 271 274 274 274 276 279
263 261 258 260 250 254 255 246 247 237 241 241 231 228 256 255 297 255 246 247 248 246 250 249 248 249 257 258 260 265 267 270 276 277 277 271 270 269 270 273 274 275 276
273 270 265 261 261 248 244 251 247 245 241 240 242 236 241 257 261 278 241 255 251 248 251 249 248 249 252 257 259 259 260 267 269 278 277 285 287 274 266 269 272 273 276
274 277 271 271 262 256 247 247 247 244 239 237 235 234 235 242 244 256 267 263 259 266 260 257 252 247 240 260 269 262 257 256 262 272 279 283 282 278 273 273 267 270 274
277 270 272 267 271 269 259 250 255 246 246 243 238 236 225 229 228 231 244 258 265 268 265 261 255 254 259 262 270 279 257 254 260 269 277 278 271 271 266 271 264 269 275
285 282 279 270 265 263 262 257 254 254 247 240 237 235 239 240 241 240 246 256 261 265 267 265 257 254 254 257 263 276 264 256 259 265 267 273 267 262 262 267 261 268 271
288 284 282 277 272 266 261 260 256 251 249 246 242 239 233 241 241 239 239 246 258 255 255 262 265 254 248 251 254 265 264 262 260 262 268 271 267 253 256 257 257 263 266
296 296 288 281 275 270 263 256 251 249 244 242 239 237 235 239 238 239 239 237 245 261 260 257 254 261 248 245 247 253 260 269 266 253 261 272 279 252 248 244 250 256 269
300 297 294 289 282 274 268 261 253 247 241 241 239 237 233 237 236 236 235 239 237 244 261 260 259 259 252 250 255 256 257 266 252 255 266 270 271 255 236 234 244 257 272
303 300 297 293 288 283 276 266 256 249 240 234 234 234 231 230 227 227 229 240 238 224 235 261 260 256 251 250 257 253 248 245 253 260 261 267 264 252 242 237 242 257 268
306 303 298 295 290 285 278 272 264 252 241 231 231 228 229 228 226 227 220 226 230 225 216 236 244 246 241 247 249 243 242 247 248 252 257 266 262 252 238 239 244 254 261
303 304 298 294 290 285 281 269 265 258 246 235 225 223 225 224 223 216 224 220 226 234 227 229 243 241 236 240 241 245 241 242 242 246 252 260 254 250 244 240 241 251 256
303 308 303 293 288 281 275 271 262 259 250 243 230 223 226 223 222 219 219 228 238 246 244 236 237 239 229 227 231 240 243 239 239 243 248 248 248 253 247 239 239 246 252
309 310 307 294 291 279 266 260 257 254 248 244 234 227 226 230 227 223 225 236 236 241 238 244 232 231 231 219 223 226 242 241 237 239 244 244 245 247 240 235 236 242 247
321 322 319 305 299 280 263 253 253 251 251 241 234 228 229 231 229 232 240 244 246 242 241 236 232 225 227 225 234 225 235 227 238 240 234 247 241 240 236 232 234 241 244
332 330 327 331 313 294 273 265 252 249 249 244 235 234 229 228 227 230 237 242 241 238 241 239 233 228 230 223 231 219 223 228 221 214 208 246 233 239 235 232 234 242 243
337 334 330 346 335 303 287 270 257 248 244 240 233 235 232 228 221 220 224 223 231 241 243 237 235 234 229 229 225 221 221 230 235 230 217 243 238 243 235 233 234 230 235
334 337 339 350 330 334 341 319 265 252 239 235 233 229 224 227 225 225 222 228 233 238 236 236 235 243 246 241 232 225 217 215 220 227 219 225 232 237 229 231 229 232 234
329 335 345 350 337 336 348 347 308 235 221 221 224 224 231 224 225 225 222 226 232 234 227 231 234 241 242 243 238 236 229 226 232 234 222 214 225 217 228 232 228 225 233